Terminal Aerodrome Forecast
Issued by NWS Mobile, AL

Home | Current Version | Previous Version | Text Only | Print | Product List | Glossary On
Versions: 1 2 3 4 5 6 7 8 9 10 11 12 13 14 15 16 17 18
000
FTUS44 KMOB 271732
TAFMOB
TAF
KMOB 271732Z 2718/2818 22012KT P6SM BKN025
      TEMPO 2719/2722 3SM TSRA BKN025CB
     FM272300 20004KT P6SM FEW025 SCT050=

USA.gov is the U.S. government's official web portal to all federal, state and local government web resources and services.